Regional Weather Roundup
Issued by NWS

Home | Current Version | Previous Version | Text Only | Print | Product List | Glossary Off
Versions: 1 2 3 4 5 6 7 8 9 10 11 12 13 14 15 16 17 18 19 20 21 22 23 24 25 26 27 28 29 30 31 32 33 34 35 36 37 38 39 40 41 42 43 44 45 46 47 48 49 50

000
ASUS43 KTOP 310308
RWRKS

WEATHER ROUNDUP FOR KANSAS
NATIONAL WEATHER SERVICE GOODLAND KS
1000 PM CDT THU JUL 30 2015

NOTE:  "FAIR" INDICATES FEW OR NO CLOUDS BELOW 12,000 FEET WITH NO
SIGNIFICANT WEATHER AND/OR OBSTRUCTIONS TO VISIBILITY.

KSZ001>006-013>018-027>032-041>047-310400-
NORTHWEST KANSAS

CITY           SKY/WX    TMP DP  RH WIND       PRES   REMARKS
GOODLAND       CLOUDY    75  60  59 SW8       30.28R
HAYS           CLEAR     75  63  64 SE7       30.19R
HILL CITY      PTCLDY    76  66  71 S6        30.19R
RUSSELL        CLEAR     73  67  81 SE7       30.17R
$$

KSZ061>065-074>080-084>089-310400-
SOUTHWEST KANSAS

CITY           SKY/WX    TMP DP  RH WIND       PRES   REMARKS
DODGE CITY     CLOUDY    73  69  87 SE6       30.22R
ELKHART          N/A     73  69  87 NE1         N/A
GARDEN CITY    CLOUDY    75  69  81 CALM      30.22R
GREAT BEND     CLEAR     75  68  78 SE8       30.18R
LIBERAL        CLOUDY    77  64  65 E8        30.21R
PRATT          PTCLDY    73  68  83 E5        30.20R
$$

KSZ066>073-081>083-090>101-310400-
SOUTHEAST KANSAS

CITY           SKY/WX    TMP DP  RH WIND       PRES   REMARKS
CHANUTE        MOCLDY    77  64  64 E5        30.14R
COFFEYVILLE    MOCLDY    78  73  84 CALM      30.12R
HUTCHINSON     CLEAR     73  67  81 SE3       30.17R
MEDICINE LODGE   N/A     76  72  87 SE3       30.16R
NEWTON         CLEAR     73  64  73 SE5       30.19R
PARSONS        CLOUDY    76  75  97 CALM      30.15R
WICHITA INTL   PTCLDY    77  69  76 SE6       30.16R
WICHITA JABRA  CLEAR     74  69  85 CALM      30.16R
WICHITA MCCONL CLEAR     76  66  71 E5        30.17R
WINFIELD       CLEAR     76  66  71 NE5       30.16R
$$

KSZ007>012-019>026-033>040-048>060-102>105-310400-
NORTHEAST KANSAS

CITY           SKY/WX    TMP DP  RH WIND       PRES   REMARKS
CONCORDIA      CLEAR     73  68  84 S7        30.16R
EMPORIA        CLEAR     73  65  75 SE5       30.16R
LAWRENCE       CLEAR     68  65  90 CALM      30.15R
MANHATTAN      CLEAR     72  65  78 CALM      30.14R
MARYSVILLE     PTCLDY    72  64  78 S3        30.15R
OLATHE IND     CLEAR     71  62  73 SE3       30.16R
OLATHE EXE     CLEAR     73  61  65 CALM      30.15R
SALINA         CLEAR     76  67  73 S3        30.15R
TOPEKA BILLARD CLEAR     75  67  76 CALM      30.14R
TOPEKA FORBES  CLEAR     73  65  75 CALM      30.15R
$$



USA.gov is the U.S. government's official web portal to all federal, state and local government web resources and services.